Regional Weather Roundup
Issued by NWS

Home | Current Version | Previous Version | Graphics & Text | Print | Product List | Glossary On
Versions: 1 2 3 4 5 6 7 8 9 10 11 12 13 14 15 16 17 18 19 20 21 22 23 24 25 26 27 28 29 30 31 32 33 34 35 36 37 38 39 40 41 42 43 44 45 46 47 48 49 50
000
ASUS43 KLOT 311706
RWRIL

ILLINOIS REGIONAL WEATHER ROUNDUP
NATIONAL WEATHER SERVICE CHICAGO/ROMEOVILLE IL
1200 PM CDT THU JUL 31 2014

NOTE: "FAIR" INDICATES FEW OR NO CLOUDS BELOW 12,000 FEET WITH NO
SIGNIFICANT WEATHER AND/OR OBSTRUCTIONS TO VISIBILITY.

* THESE STATIONS ARE NOT UNDER NWS QUALITY CONTROL. THEY ALSO MAY NOT
  REPORT WEATHER SUCH AS PRECIPITATION OR FOG.

ILZ001-002-007-009-015-016-024-311800-
NORTHWEST ILLINOIS

CITY           SKY/WX    TMP DP  RH WIND       PRES   REMARKS
MOLINE         SUNNY     80  60  50 W9        30.08S HX  81
STERLING*      SUNNY     81  63  54 NW9       30.08S HX  82
SAVANNA*       SUNNY     81  58  46 W8        30.07S HX  81
$$

ILZ003-004-008-010-011-017-018-311800-
NORTH CENTRAL ILLINOIS

CITY           SKY/WX    TMP DP  RH WIND       PRES   REMARKS
ROCKFORD       MOSUNNY   79  59  50 W13G18    30.07S HX  80
FREEPORT*      SUNNY     78  62  58 W9        30.09R
ROCHELLE*      SUNNY     80  59  48 W15       30.07S HX  80
DE KALB*       MOSUNNY   76  60  57 W9G17     30.07S
PERU*          SUNNY     78  62  57 W8        30.08S HX  80
$$

ILZ005-006-012>014-019>023-311800-
NORTHEAST ILLINOIS

CITY           SKY/WX    TMP DP  RH WIND       PRES   REMARKS
CHICAGO-OHARE  MOSUNNY   81  56  42 W14G20    30.03F HX  81
CHICAGO-MIDWAY MOSUNNY   82  59  45 W13G20    30.04F HX  82
AURORA         MOSUNNY   78  62  57 W7        30.06F HX  80
LANSING*       MOSUNNY   79  61  53 W13       30.06S HX  80
JOLIET*        SUNNY     78  60  53 W7        30.07S
WAUKEGAN       SUNNY     79  59  50 VRB7      30.02S HX  80
DUPAGE AIRPORT SUNNY     80  60  50 SW12      30.04F HX  81
KANKAKEE*      SUNNY     78  62  58 W8        30.08F
WHEELING       MOSUNNY   81  56  42 W14       30.04F HX  81
MORRIS*        SUNNY     79  64  59 W10       30.06F HX  80
ROMEOVILLE*    SUNNY     78  60  53 W10       30.06F HX  80
NORTHERLY ISL    N/A     78  55  44 W5          N/A
$$

LMZ740>746-311800-
SOUTHERN LAKE MICHIGAN

STATION/POSITION SKY/WX   TEMP    WIND        PRES    VSBY  WAVE
                          AIR SEA DIR/SP/G                  HT/PER
                          (F)     (DEG/KT/KT) (MB)    (MI)  (FT/S)
SOUTHERN BUOY              63 62  230/  6/  6 1017.0S         1/ 3
WAUKEGAN HARBOR            76     270/  9/ 15   N/A
HARRISON CRIB              76     250/ 10/ 13   N/A
BURNHAM HARBOR             79     300/  7/ 12   N/A
CALUMET HARBOR             78     240/  3/ 10 1016.2S
BURNS HARBOR               73     280/ 10/ 12 1018.3S
MICHIGAN CITY              72     240/ 11/ 12   N/A
MICHIGAN CITY 6N           70 69  250/  6/  6   N/A           1
ST. JOSEPH                 69 68  220/  8/ 10   N/A           1/ 3
$$

ILZ025>027-034>036-040-047-049-050-058-095>099-311800-
WEST-CENTRAL ILLINOIS

CITY           SKY/WX    TMP DP  RH WIND       PRES   REMARKS
QUINCY         MOSUNNY   78  59  51 CALM      30.11S
GALESBURG*     SUNNY     82  64  56 W7        30.10S HX  83
MACOMB*        SUNNY     77  62  58 W7        30.12S
JACKSONVILLE*  SUNNY     81  62  52 NW6       30.11F HX  82
PITTSFIELD*    MOSUNNY   80  59  49 CALM      30.12S HX  80
$$

ILZ028>032-037-038-041>044-048-051>054-059>061-311800-
CENTRAL ILLINOIS

CITY           SKY/WX    TMP DP  RH WIND       PRES   REMARKS
PONTIAC        SUNNY     81  64  57 W9        30.08F HX  82
DECATUR        SUNNY     79  60  52 W7        30.10F HX  80
PEORIA         MOSUNNY   81  61  50 W5        30.09S HX  82
LACON*         SUNNY     80  59  50 W7        30.07F HX  80
LINCOLN*       MOSUNNY   80  61  52 CALM      30.07S HX  81
SPRINGFIELD    MOSUNNY   80  62  54 W6        30.10S HX  81
TAYLORVILLE    SUNNY     77  61  57 SW3       30.10S
$$

ILZ033-039-045-046-055>057-062-063-311800-
EAST-CENTRAL ILLINOIS

CITY           SKY/WX    TMP DP  RH WIND       PRES   REMARKS
CHAMPAIGN      SUNNY     79  57  46 W8        30.10F HX  80
DANVILLE*      SUNNY     76  60  57 NW7       30.07S
RANTOUL*       SUNNY     79  58  48 CALM      30.11S HX  80
MATTOON        MOSUNNY   78  60  53 W5        30.10S
PARIS*         MOSUNNY   79  65  62 SW5       30.11S HX  80
$$

ILZ079-100>102-311800-
SOUTHWEST ILLINOIS

CITY           SKY/WX    TMP DP  RH WIND       PRES   REMARKS
ALTON          MOSUNNY   81  61  50 VRB5      30.11S HX  81
BELLEVILLE     MOSUNNY   79  62  54 NE2       30.09F HX  80
CAHOKIA*       PTSUNNY   83  60  45 VRB6      30.09S HX  83
SPARTA*        PTSUNNY   77  61  57 SW5       30.11S
$$

ILZ064>066-069>071-074>076-080>082-084>086-088>090-092>094-311800-
SOUTH-CENTRAL ILLINOIS

CITY           SKY/WX    TMP DP  RH WIND       PRES   REMARKS
CARBONDALE     MOSUNNY   80  62  54 SW8       30.10F HX  81
CAIRO*         CLOUDY    78  65  65 SW3       30.11F HX  80
EFFINGHAM*     SUNNY     81  55  39 S3        30.10S HX  81
MARION         PTSUNNY   79  64  61 S12       30.11F HX  81
MT. VERNON     MOSUNNY   81  64  57 S5        30.11F HX  82
CENTRALIA*     SUNNY     92  58  31 CALM      30.10F HX  91
SALEM*         MOSUNNY  N/A N/A N/A SW7       30.10F
METROPOLIS*    MOSUNNY   80  56  43 CALM      30.11S HX  80
$$

ILZ067-068-072-073-078-083-087-091-311800-
SOUTHEAST ILLINOIS

CITY           SKY/WX    TMP DP  RH WIND       PRES   REMARKS
LAWRENCEVILLE  MOSUNNY   80  64  58 SW6       30.10S HX  82
FLORA*         SUNNY     80  60  50 SW3       30.10F HX  80
FAIRFIELD*     MOSUNNY   81  66  61 SW6       30.10F HX  83
HARRISBURG*    MOSUNNY   78  64  61 CALM      30.12S HX  80
ROBINSON*      MOSUNNY   81  63  54 CALM      30.11S HX  82
CARMI*         PTSUNNY   81  66  61 SW5       30.10S HX  83
$$

ABBREVIATIONS USED IN REMARKS
   TC - TEMPERATURE IN CELSIUS
  WCI - WIND CHILL INDEX
   HX - HEAT INDEX
  VSB - VISIBILITY
$$




USA.gov is the U.S. government's official web portal to all federal, state and local government web resources and services.